This demonstration page uses our WeatherBlox Daily Observations layout. Learn more.

Left ArrowRight Arrow

Hourly Observations for January 9, 2019

Temp ( °F °C ) Dew Point ( °F °C ) Humidity (%) Winds ( mph kmh ) Pressure ( in mb ) Visibility ( mi km ) Precip ( " mm )
12:53 am 00:53 Clear 54 12.2 34 1.1 47 47 NW 16 26 30.09 1019 10 16 0.00 0.00
1:53 am 01:53 Clear 50 10 31 -0.6 48 48 NNW 10 17 30.12 1020 10 16 0.00 0.00
2:53 am 02:53 Clear 48 8.9 28 -2.2 46 46 NW 16 26 30.14 1021 10 16 0.00 0.00
3:53 am 03:53 Clear 46 7.8 26 -3.3 46 46 NW 15 24 30.14 1021 10 16 0.00 0.00
4:53 am 04:53 Clear 45 7.2 26 -3.3 48 48 NW 12 19 30.13 1020 10 16 0.00 0.00
5:53 am 05:53 Clear 43 6.1 26 -3.3 51 51 NW 7 11 30.15 1021 10 16 0.00 0.00
6:53 am 06:53 Clear 43 6.1 26 -3.3 51 51 NW 9 15 30.15 1021 10 16 0.00 0.00
7:53 am 07:53 Sunny 41 5 26 -3.3 55 55 WNW 7 11 30.17 1022 10 16 0.00 0.00
8:53 am 08:53 Sunny 43 6.1 26 -3.3 51 51 WNW 13 20 30.18 1022 10 16 0.00 0.00
9:53 am 09:53 Sunny 46 7.8 24 -4.4 42 42 NW 13 20 30.19 1023 10 16 0.00 0.00
10:53 am 10:53 Sunny 48 8.9 21 -6.1 34 34 WNW 15 24 30.19 1023 10 16 0.00 0.00
11:53 am 11:53 Sunny 50 10 20 -6.7 30 30 NW 13 20 30.16 1022 10 16 0.00 0.00
12:53 pm 12:53 Sunny 50 10 17 -8.3 27 27 WNW 20 31 30.14 1021 10 16 0.00 0.00
1:53 pm 13:53 Sunny 51 10.6 18 -7.8 27 27 NW 15 24 30.12 1020 10 16 0.00 0.00
2:53 pm 14:53 Sunny 52 11.1 18 -7.8 26 26 WNW 16 26 30.11 1020 10 16 0.00 0.00
3:53 pm 15:53 Sunny 51 10.6 18 -7.8 27 27 WNW 18 30 30.11 1020 10 16 0.00 0.00
4:53 pm 16:53 Sunny 50 10 19 -7.2 29 29 NW 18 30 30.12 1020 10 16 0.00 0.00
5:53 pm 17:53 Clear 48 8.9 18 -7.8 30 30 WNW 13 20 30.12 1020 10 16 0.00 0.00
6:53 pm 18:53 Clear 46 7.8 20 -6.7 35 35 WNW 6 9 30.13 1020 10 16 0.00 0.00
7:53 pm 19:53 Clear 44 6.7 22 -5.6 41 41 WNW 7 11 30.13 1020 10 16 0.00 0.00
8:53 pm 20:53 Clear 42 5.6 21 -6.1 43 43 NW 12 19 30.13 1020 10 16 0.00 0.00
9:53 pm 21:53 Clear 41 5 21 -6.1 45 45 NW 9 15 30.12 1020 10 16 0.00 0.00
10:53 pm 22:53 Clear 40 4.4 19 -7.2 43 43 NW 15 24 30.14 1021 10 16 0.00 0.00
11:53 pm 23:53 Clear 39 3.9 19 -7.2 45 45 NNW 14 22 30.14 1021 10 16 0.00 0.00

Powered by AerisWeather